Regional Weather Roundup
Issued by NWS Nashville, TN

Home | Current Version | Previous Version | Text Only | Print | Product List | Glossary On
Versions: 1 2 3 4 5 6 7 8 9 10 11 12 13 14 15 16 17 18 19 20 21 22 23 24 25 26 27 28 29 30 31 32 33 34 35 36 37 38 39 40 41 42 43 44 45 46 47 48 49 50
000
ASUS44 KOHX 241210
RWROHX
MIDDLE TENNESSEE HOURLY WEATHER ROUNDUP
NATIONAL WEATHER SERVICE NASHVILLE TN
600 AM CST TUE JAN 24 2017

NOTE: "FAIR" INDICATES FEW OR NO CLOUDS BELOW 12,000 FEET WITH
NO SIGNIFICANT WEATHER AND/OR OBSTRUCTIONS TO VISIBILITY.

* THESE REPORTS ARE NOT UNDER NWS QUALITY CONTROL AND MAY NOT
  REPORT WEATHER SUCH AS PRECIPITATION AND FOG.


TNZ005>011-023>034-057-059-062>066-078-080-241300
...NORTHERN MIDDLE TENNESSEE...

CITY           SKY/WX    TMP DP  RH WIND       PRES   REMARKS
CLARKSVILLE    CLOUDY    40  32  73 NW9       29.91R WCI  34
CROSSVILLE     CLOUDY    36  34  92 NW8       29.84R WCI  30
GALLATIN       CLOUDY    41  36  81 NW7G13    29.93R
DICKSON        CLOUDY    39  34  82 N5        29.89R
LEBANON        CLOUDY    39  34  82 NW6       29.87R WCI  35
NASHVILLE      CLOUDY    41  33  73 N8        29.91R
PORTLAND       CLOUDY    39  36  87 N8        29.90R WCI  34
SMYRNA         CLOUDY    41  34  76 NW9       29.92R
SPRINGFIELD    CLOUDY    39  36  87 NW5       29.89S
WEST NASHVILLE CLOUDY    39  34  81 NW8       29.91R WCI  34
$$
TNZ056-058-060-061-075>077-079-093>097-241300
...SOUTHERN MIDDLE TENNESSEE...

CITY           SKY/WX    TMP DP  RH WIND       PRES   REMARKS
COLUMBIA       CLOUDY    39  39 100 CALM      29.88R
MCMINNVILLE    CLOUDY    37  36  93 N6          N/A  WCI  33
MURFREESBORO   CLOUDY    41  34  76 N7        29.89R
SHELBYVILLE    CLOUDY    41  36  81 NW6       29.90R
TULLAHOMA      CLOUDY    37  34  87 N9        29.88R WCI  31
WINCHESTER     CLOUDY    37  34  87 N7        29.87R WCI  32
$$


...KEY TO REMARKS...
VSB - VISIBILITY IN MILES
WCI - WIND CHILL INDEX
HX  - HEAT INDEX




USA.gov is the U.S. government's official web portal to all federal, state and local government web resources and services.